This is the latest recevied weather packets stored in our database for station/object K6CQU-13. If no packets are shown the sender has not sent any weather packets the latest 10 day(s).
| Time | Temp. | Humidity | Pressure | Rain* | Wind** | Luminosity | Snow |
|---|---|---|---|---|---|---|---|
| 1787777416 | 32.22° C | 28% | 1013.6 hPa | 0 mm | - | 847 W/m² | - |
| 1787777118 | 31.67° C | 34% | 1013.7 hPa | 0 mm | - | 849 W/m² | - |
| 1787776818 | 31.67° C | 32% | 1013.7 hPa | 0 mm | - | 852 W/m² | - |
| 1787776518 | 31.67° C | 33% | 1013.8 hPa | 0 mm | - | 855 W/m² | - |
| 1787776218 | 31.67° C | 34% | 1013.8 hPa | 0 mm | - | 855 W/m² | - |
| 1787775918 | 31.67° C | 33% | 1013.8 hPa | 0 mm | - | 857 W/m² | - |
| 1787775618 | 31.67° C | 35% | 1013.9 hPa | 0 mm | - | 858 W/m² | - |
| 1787775318 | 31.67° C | 34% | 1013.8 hPa | 0 mm | - | 859 W/m² | - |
| 1787775018 | 31.11° C | 33% | 1013.9 hPa | 0 mm | - | 859 W/m² | - |
| 1787774718 | 31.11° C | 37% | 1013.9 hPa | 0 mm | - | 857 W/m² | - |
| 1787774418 | 31.11° C | 38% | 1014 hPa | 0 mm | - | 857 W/m² | - |
| 1787774118 | 31.11° C | 39% | 1014 hPa | 0 mm | - | 856 W/m² | - |
| 1787773818 | 31.11° C | 40% | 1014 hPa | 0 mm | - | 854 W/m² | - |
| 1787773518 | 31.11° C | 40% | 1014 hPa | 0 mm | - | 853 W/m² | - |
| 1787773218 | 31.11° C | 41% | 1014.1 hPa | 0 mm | - | 851 W/m² | - |
| 1787772917 | 31.11° C | 42% | 1014.1 hPa | 0 mm | - | 847 W/m² | - |
| 1787772618 | 31.11° C | 43% | 1014.2 hPa | 0 mm | - | 844 W/m² | - |
| 1787772318 | 31.11° C | 40% | 1014.2 hPa | 0 mm | - | 838 W/m² | - |
| 1787772018 | 31.11° C | 41% | 1014.2 hPa | 0 mm | - | 836 W/m² | - |
| 1787771718 | 31.11° C | 35% | 1014.3 hPa | 0 mm | - | 831 W/m² | - |
| 1787771418 | 30.56° C | 36% | 1014.4 hPa | 0 mm | - | 828 W/m² | - |
| 1787771118 | 30.56° C | 37% | 1014.5 hPa | 0 mm | - | 822 W/m² | - |
| 1787770817 | 30.56° C | 36% | 1014.4 hPa | 0 mm | - | 817 W/m² | - |
| 1787770517 | 30° C | 35% | 1014.4 hPa | 0 mm | - | 811 W/m² | - |
| 1787770217 | 30° C | 33% | 1014.6 hPa | 0 mm | - | 804 W/m² | - |
* Rain latest hour (hover to see other rain measurements)
** Current wind speed in m/s (hover to see current wind gust speed)